ATLAS 5 CENTAUR DEB, 44893

Orbit data source: Space-Track

ATLAS 5 CENTAUR DEB, 44893 is space debris in HEO originally from a launch on Wed, 17 Sep 2014 UTC launched from the Air Force Eastern Test Range (AFETR). Debris objects in space refer to the collection of defunct objects orbiting the Earth. Examples of debris include non-operational satellites, rocket bodies, and fragments generated from explosions, collisions, or faulty payload assembly.

Loading next visibility...
Identifier
44893, 2014-055CJ
Orbit
HEO
Country
Flag of USUS
Related business
Flag of USUnited Launch Alliance/Lockheed Martin (US)
Manufacturer
Unknown
Mission
Spacecraft
Bus & Motor
Unknown
Mass
Unknown
Launch date (UTC)
2014-09-17 (12 years ago)
Launch vehicle
Unknown
Launch site
Air Force Eastern Test Range (AFETR)
Object type
Payload
Rocket body
Debris
Shape & HBR
Unknown shape, 1.1 m
Radar Cross Section
Small (<0.1 m²)

Expand to show TLE details & history
Last TLE update: 1 day ago

TLE from 1 day ago
0 ATLAS 5 CENTAUR DEB
1 44893U 14055CJ  26118.86155638 -.00000009  00000-0  00000-0 0  9993
2 44893  20.4526 134.2162 4823126 183.2110 172.0065  1.88239223 44322
Epoch: 2026-04-28T20:40Z
TLE epoch observation values (Epoch: 2026-04-28T20:40:38.471Z)
Latitude
-0.00008°
Longitude
-32.75118°
Altitude
34,605.719 km
Speed
2.251 km/s
True Right ascension
08h 56m 57s
True Declination
0° 00' 00"
Sunlit
Object was in daylight at epoch
Visualization orbit readout
Latitude
Unknown
Longitude
Unknown
Altitude
Unknown
Speed
Unknown
Apparent Right ascension
Unknown
Apparent Declination
Unknown
Sunlit
N/A
Visualization observer readout
Local Sidereal Time
10:23:27
Azimuth
Unknown
Elevation
Unknown
Doppler factor
Unknown
Orbital elements
Apogee altitude
34,695.715 km
Perigee altitude
7,966.621 km
Semi-major axis
27,709.305 km
Eccentricity
0.48231
Inclination
20.4526°
RAAN
134.2162°
Arg. of periapsis
183.211°
True anomaly
176.81009°
Mean anomaly
172.0065°
Eccentric anomaly
174.60482°
Mean motion
0.47055 °/min
Orbital period
765.06 mins
BSTAR
0
Loading maneuver chart data...
Computing Atmospheric mass density...

Documentation

Showing up to 5 results
|